Flag for U.S.A. Weather past 2 weeks in Hollywood, Florida, U.S.A.

79 °F

Mostly cloudy.

Feels Like: 84 °F
Forecast: 72 / 86 °F
Wind: 6 mph from East

Location: Fort Lauderdale / Hollywood International Airport

Current Time: Oct 13, 2015 at 7:34:22 PM

Latest Report: Oct 13, 2015 at 6:53 PM

Visibility: 10 mi

Pressure: 29.93 "Hg

Humidity: 97%

Dew point: 78 °F

Location of HollywoodLocation

Historic Weather in Hollywood — Graph


Hollywood temperature yesterday

Maximum temperature yesterday: 87 °F (at 1:53 PM)
Minimum temperature yesterday: 75 °F (at 6:53 AM)
Average temperature yesterday: 81 °F

Past Weeks' High & Low Weather Summary

High91 °F (Sep 30, 4:53 PM)97% (Sep 29, 9:53 PM)30.04 "Hg (Sep 29, 9:53 PM)
Low71 °F (Oct 4, 5:53 AM)45% (Oct 3, 2:53 PM)29.50 "Hg (Oct 2, 3:53 PM)
Average81 °F76%29.82 "Hg
* Reported Sep 28 5:53 PM — Oct 13 5:53 PM, Hollywood, Weather by CustomWeather, © 2015

Note: Actual official high and low records may vary slightly from our data, if they occured in-between our weather recording intervals... More about our weather records


Hollywood weather history for previous 24 hours

Time TempWeatherWind HumidityBarometerVisibility
5:53 PM
Tue, Oct 13
78 °FLight rain. Partly sunny.13 mph96%29.92 "Hg8 mi
4:53 PM80 °FPartly sunny.9 mph87%29.90 "Hg10 mi
3:53 PM82 °FLight rain. Mostly cloudy.12 mph79%29.92 "Hg6 mi
2:53 PM85 °FPartly sunny.13 mph63%29.93 "Hg10 mi
1:53 PM86 °FPartly sunny.14 mph61%29.95 "Hg10 mi
12:53 PM86 °FScattered clouds.14 mph59%29.96 "Hg10 mi
11:53 AM87 °FScattered clouds.5 mph53%29.96 "Hg10 mi
10:53 AM85 °FSunny.No wind57%29.98 "Hg10 mi
9:53 AM84 °FPassing clouds.3 mph55%29.97 "Hg10 mi
8:53 AM80 °FPassing clouds.No wind69%29.96 "Hg10 mi
7:53 AM76 °FPassing clouds.No wind80%29.94 "Hg10 mi
6:53 AM74 °FPassing clouds.No wind85%29.94 "Hg10 mi
5:53 AM74 °FPassing clouds.No wind85%29.91 "Hg10 mi
4:53 AM74 °FClear.3 mph82%29.90 "Hg10 mi
3:53 AM74 °FClear.5 mph85%29.90 "Hg10 mi
2:53 AM76 °FClear.5 mph80%29.91 "Hg10 mi
1:53 AM76 °FPassing clouds.5 mph77%29.93 "Hg10 mi
12:53 AM78 °FPassing clouds.6 mph71%29.93 "Hg10 mi
11:53 PM
Mon, Oct 12
80 °FPassing clouds.3 mph81%29.94 "Hg10 mi
10:53 PM80 °FPassing clouds.No wind81%29.94 "Hg10 mi
9:53 PM80 °FPassing clouds.3 mph81%29.92 "Hg10 mi
8:53 PM82 °FPassing clouds.6 mph74%29.90 "Hg10 mi
7:53 PM82 °FScattered clouds.8 mph74%29.89 "Hg10 mi
Weather by CustomWeather, © 2015

See weather overviewHow to use our weather pages